Regional Weather Roundup
Issued by NWS

Home | Current Version | Previous Version | Graphics & Text | Print | Product List | Glossary On
Versions: 1 2 3 4 5 6 7 8 9 10 11 12 13 14 15 16 17 18 19 20 21 22 23 24 25 26 27 28 29 30 31 32 33 34 35 36 37 38 39 40 41 42 43 44 45 46 47 48 49 50
000
ASUS43 KLMK 280402
RWRKY
KENTUCKY REGIONAL WEATHER ROUNDUP
NATIONAL WEATHER SERVICE LOUISVILLE KY
1200 AM EDT TUE APR 28 2015

NOTE "FAIR" INDICATES FEW OR NO CLOUDS BELOW 12,000 FEET
WITH NO SIGNIFICANT WEATHER AND/OR OBSTRUCTIONS TO VISIBILITY.

KYZ001>023-026-027-061>063-070>075-280500-
WESTERN AND SOUTH CENTRAL KENTUCKY

CITY           SKY/WX    TMP DP  RH WIND       PRES   REMARKS
PADUCAH        PTCLDY    53  41  63 NE9       30.03S
HENDERSON      CLEAR     52  39  62 NE9       30.05S
OWENSBORO      CLEAR     53  40  61 NE8       30.05R
HOPKINSVILLE   CLEAR     53  42  67 N10       30.00F
BOWLING GREEN  CLEAR     54  39  57 N7        30.01S
GLASGOW        NOT AVBL
$$

KYZ024-025-028>034-038-045-046-053-280500-
NORTH CENTRAL KENTUCKY

CITY           SKY/WX    TMP DP  RH WIND       PRES   REMARKS
LOUISVILLE/SDF FAIR      52  38  58 N8        30.04S
LOUISVILLE/LOU CLEAR     51  38  60 N5        30.05S
FORT KNOX      CLEAR     49  38  64 N3        30.02S
$$

KYZ035>037-039>044-047>052-055>060-089>105-280500-
NORTHEAST KENTUCKY

CITY           SKY/WX    TMP DP  RH WIND       PRES   REMARKS
LEXINGTON      CLEAR     48  38  68 NE12      30.04R
COVINGTON      MOCLDY    50  37  61 NE9       30.06S
FRANKFORT      CLEAR     50  37  61 NE6       30.03R
$$

KYZ054-064>069-076>088-106>120-280500-
SOUTHEAST KENTUCKY

CITY           SKY/WX    TMP DP  RH WIND       PRES   REMARKS
JACKSON        CLEAR     49  35  58 VRB3      30.02R
LONDON         CLOUDY    51  37  58 N7        30.00R
SOMERSET       NOT AVBL
MIDDLESBORO    CLEAR     44  39  85 CALM      30.00S
MONTICELLO     CLEAR     42  41  97 CALM      30.03F
$$



USA.gov is the U.S. government's official web portal to all federal, state and local government web resources and services.